STARLINK-3071, 49147

Orbit data source: Space-Track

STARLINK-3071, 49147 is a payload satellite owned by SpaceX/Seattle (US) in LEO that was launched on Tue, 14 Sep 2021 UTC via an FALCON 9 launch vehicle from the Air Force Western Test Range (AFWTR). Payload-class satellites include a variety of spacecraft equipped with specific instruments for various scientific and technological missions. These include communications satellites like Starlink; space stations such as the ISS; scientific satellites like the Hubble; Earth observation satellites from companies like Planet Labs, Umbra, and HawkEye 360; GPS; miniature CubeSats for education and research; and military/defense satellites.

Loading next visibility...
Identifier
49147, 2021-082T
Orbit
LEO
Country
Flag of USUS
Related business
Manufacturer
SpaceX/Seattle
Mission
Operational Commercial Communications
Bus & Motor
STARLINK, Unknown motor
Mass
297 kg wet, ~275 kg dry
Launch date (UTC)
2021-09-14 (5 years ago)
Launch vehicle
FALCON 9
Launch site
Air Force Western Test Range (AFWTR)
Object type
Payload
Rocket body
Debris
Shape & HBR
Box + 1 Pan, 10.1 m
Radar Cross Section
13.562 m², Large (>1 m²)

Expand to show TLE details & history
Last TLE update: 13 hours ago

TLE from 13 hours ago
0 STARLINK-3071
1 49147U 21082T   26125.40939951  .00000485  00000-0  48463-4 0  9990
2 49147  69.9989 111.4505 0003542 267.9137  92.1616 14.98329175255469
Epoch: 2026-05-05T09:49Z
TLE epoch observation values (Epoch: 2026-05-05T09:49:32.117Z)
Latitude
-0.00008°
Longitude
100.782°
Altitude
574.576 km
Speed
7.574 km/s
True Right ascension
07h 25m 48s
True Declination
0° 00' 00"
Sunlit
Object was in daylight at epoch
Visualization orbit readout
Latitude
Unknown
Longitude
Unknown
Altitude
Unknown
Speed
Unknown
Apparent Right ascension
Unknown
Apparent Declination
Unknown
Sunlit
N/A
Visualization observer readout
Local Sidereal Time
07:13:06
Azimuth
Unknown
Elevation
Unknown
Doppler factor
Unknown
Orbital elements
Apogee altitude
572.468 km
Perigee altitude
567.546 km
Semi-major axis
6,948.144 km
Eccentricity
0.00035
Inclination
69.9989°
RAAN
111.4505°
Arg. of periapsis
267.9137°
True anomaly
92.20216°
Mean anomaly
92.1616°
Eccentric anomaly
92.18188°
Mean motion
3.74749 °/min
Orbital period
96.06 mins
BSTAR
0.000048463
Loading maneuver chart data...
Computing Atmospheric mass density...
Loading historical data...
Loading historical data...
Loading historical data...
Loading historical data...
Loading historical data...
Loading historical data...
Loading historical data...

Documentation

Showing up to 5 results
|